When you browse on this site, cookies collect data to enhance your experience and personalize the content and advertising you see.
Visit our Privacy Policy to learn more. By continuing to use the site, you agree to this use of cookies and data.
  • In Portugal
  • List of Countries
  • For 7 days
  • Water Temperature
  • Satellite Maps
  • Weather Map
  • Weather Widgets
  • user-avatar
    Login

    Hourly Weather Tyrgowishte

    Today, 21 January, Monday

    Time Temperature Precipitation Wind Pressure Humidity
    00:00 +3°C° 0 mm 3 mps 743 mmHg 96%
    01:00 +3°C° 0 mm 3 mps 743 mmHg 95%
    02:00 +1°C° 0 mm 4 mps 743 mmHg 94%
    03:00 +1°C° 0 mm 4 mps 743 mmHg 93%
    04:00 +1°C° 0 mm 4 mps 743 mmHg 92%
    05:00 +1°C° 0 mm 4 mps 743 mmHg 91%
    06:00 0°C° 0 mm 4 mps 744 mmHg 92%
    07:00 0°C° 0 mm 3 mps 744 mmHg 93%
    08:00 0°C° 0 mm 3 mps 744 mmHg 94%
    09:00 +1°C° 0 mm 3 mps 745 mmHg 88%
    10:00 +2°C° 0 mm 3 mps 745 mmHg 83%
    11:00 +3°C° 0 mm 3 mps 746 mmHg 77%
    12:00 +3°C° 0 mm 3 mps 746 mmHg 74%
    13:00 +4°C° 0 mm 3 mps 746 mmHg 72%
    14:00 +5°C° 0 mm 2 mps 746 mmHg 70%
    15:00 +4°C° 0 mm 2 mps 746 mmHg 73%
    16:00 +4°C° 0 mm 2 mps 746 mmHg 77%
    17:00 +3°C° 0 mm 2 mps 746 mmHg 80%
    18:00 +2°C° 0 mm 2 mps 747 mmHg 83%
    19:00 +1°C° 0 mm 2 mps 747 mmHg 85%
    20:00 -1°C° 0 mm 2 mps 747 mmHg 87%
    21:00 -1°C° 0 mm 2 mps 747 mmHg 87%
    22:00 -1°C° 0 mm 2 mps 748 mmHg 88%
    23:00 -1°C° 0 mm 2 mps 748 mmHg 88%

    Tomorrow, 22 January, Tuesday

    Time Temperature Precipitation Wind Pressure Humidity
    00:00 -1°C° 0 mm 2 mps 748 mmHg 87%
    01:00 -1°C° 0 mm 2 mps 748 mmHg 87%
    02:00 -1°C° 0 mm 2 mps 748 mmHg 87%
    03:00 -1°C° 0 mm 2 mps 747 mmHg 87%
    04:00 -1°C° 0 mm 2 mps 747 mmHg 87%
    05:00 -1°C° 0 mm 2 mps 747 mmHg 86%
    06:00 -1°C° 0 mm 3 mps 747 mmHg 87%
    07:00 -1°C° 0 mm 3 mps 747 mmHg 88%
    08:00 0°C° 0 mm 3 mps 747 mmHg 89%
    09:00 +1°C° 0 mm 3 mps 747 mmHg 86%
    10:00 0°C° 0 mm 4 mps 746 mmHg 84%
    11:00 +1°C° 0 mm 4 mps 746 mmHg 81%
    12:00 +3°C° 0.1 mm 4 mps 746 mmHg 81%
    13:00 +2°C° 0.1 mm 5 mps 745 mmHg 80%
    14:00 +3°C° 0.1 mm 5 mps 744 mmHg 80%
    15:00 +4°C° 0 mm 4 mps 744 mmHg 84%
    16:00 +3°C° 0 mm 4 mps 743 mmHg 87%
    17:00 +3°C° 0 mm 4 mps 742 mmHg 91%
    18:00 +3°C° 0 mm 4 mps 742 mmHg 92%
    19:00 +3°C° 0 mm 4 mps 742 mmHg 93%
    20:00 +3°C° 0 mm 4 mps 741 mmHg 94%
    21:00 +2°C° 0 mm 5 mps 741 mmHg 93%
    22:00 +2°C° 0 mm 5 mps 740 mmHg 92%
    23:00 +2°C° 0 mm 5 mps 740 mmHg 91%

    Day after tomorrow, 23 January, Wednesday

    Time Temperature Precipitation Wind Pressure Humidity
    00:00 +3°C° 0 mm 5 mps 739 mmHg 92%
    01:00 +3°C° 0 mm 5 mps 738 mmHg 93%
    02:00 +3°C° 0 mm 5 mps 738 mmHg 94%
    03:00 +3°C° 0.7 mm 5 mps 737 mmHg 93%
    04:00 +3°C° 0.7 mm 5 mps 736 mmHg 93%
    05:00 +3°C° 0.7 mm 6 mps 735 mmHg 93%
    06:00 +4°C° 0.1 mm 6 mps 735 mmHg 92%
    07:00 +5°C° 0.1 mm 6 mps 735 mmHg 91%
    08:00 +7°C° 0.1 mm 6 mps 734 mmHg 91%
    09:00 +8°C° 0 mm 6 mps 734 mmHg 84%
    10:00 +9°C° 0 mm 6 mps 734 mmHg 78%
    11:00 +10°C° 0 mm 6 mps 734 mmHg 71%
    12:00 +11°C° 0 mm 6 mps 734 mmHg 69%
    13:00 +12°C° 0 mm 5 mps 734 mmHg 67%
    14:00 +12°C° 0 mm 4 mps 734 mmHg 65%
    15:00 +11°C° 0.2 mm 3 mps 734 mmHg 69%
    16:00 +10°C° 0.2 mm 2 mps 734 mmHg 72%
    17:00 +9°C° 0.2 mm 2 mps 735 mmHg 76%
    18:00 +10°C° 0 mm 1 mps 735 mmHg 79%
    19:00 +9°C° 0 mm 1 mps 735 mmHg 82%
    20:00 +8°C° 0 mm 1 mps 736 mmHg 85%
    21:00 +8°C° 0 mm 1 mps 736 mmHg 86%
    22:00 +7°C° 0 mm 1 mps 736 mmHg 87%
    23:00 +7°C° 0 mm 1 mps 736 mmHg 88%

    24 January, Thursday

    Time Temperature Precipitation Wind Pressure Humidity
    00:00 +7°C° 0 mm 1 mps 736 mmHg 90%
    01:00 +7°C° 0 mm 1 mps 736 mmHg 91%
    02:00 +7°C° 0 mm 1 mps 736 mmHg 92%
    03:00 +7°C° 0.3 mm 1 mps 736 mmHg 93%
    04:00 +7°C° 0.3 mm 1 mps 735 mmHg 94%
    05:00 +6°C° 0.3 mm 2 mps 735 mmHg 95%
    06:00 +6°C° 0.3 mm 2 mps 735 mmHg 96%
    07:00 +5°C° 0.3 mm 3 mps 735 mmHg 96%
    08:00 +7°C° 0.3 mm 3 mps 736 mmHg 96%
    09:00 +6°C° 0 mm 4 mps 736 mmHg 94%
    10:00 +7°C° 0 mm 4 mps 736 mmHg 92%
    11:00 +8°C° 0 mm 5 mps 736 mmHg 89%
    12:00 +9°C° 0 mm 5 mps 736 mmHg 85%
    13:00 +9°C° 0 mm 6 mps 735 mmHg 80%
    14:00 +10°C° 0 mm 6 mps 735 mmHg 76%
    15:00 +9°C° 0 mm 7 mps 735 mmHg 80%
    16:00 +8°C° 0 mm 7 mps 735 mmHg 84%
    17:00 +6°C° 0 mm 7 mps 735 mmHg 88%
    18:00 +6°C° 0 mm 7 mps 735 mmHg 88%
    19:00 +5°C° 0 mm 8 mps 736 mmHg 88%
    20:00 +5°C° 0 mm 8 mps 736 mmHg 88%
    21:00 +5°C° 0.1 mm 7 mps 736 mmHg 88%
    22:00 +5°C° 0.1 mm 7 mps 736 mmHg 89%
    23:00 +5°C° 0.1 mm 6 mps 736 mmHg 89%

    25 January, Friday

    Time Temperature Precipitation Wind Pressure Humidity
    00:00 +5°C° 0.1 mm 6 mps 736 mmHg 89%
    01:00 +4°C° 0.1 mm 6 mps 736 mmHg 89%
    02:00 +4°C° 0.1 mm 7 mps 736 mmHg 89%
    03:00 +4°C° 0.2 mm 7 mps 736 mmHg 89%
    04:00 +4°C° 0.2 mm 7 mps 736 mmHg 89%
    05:00 +4°C° 0.2 mm 7 mps 737 mmHg 89%
    06:00 +4°C° 0.5 mm 6 mps 737 mmHg 90%
    07:00 +4°C° 0.5 mm 6 mps 737 mmHg 90%
    08:00 +3°C° 0.5 mm 6 mps 738 mmHg 91%
    09:00 +4°C° 0.1 mm 6 mps 738 mmHg 91%
    10:00 +4°C° 0.1 mm 6 mps 738 mmHg 91%
    11:00 +4°C° 0.1 mm 6 mps 738 mmHg 90%
    12:00 +4°C° 0.1 mm 6 mps 738 mmHg 90%
    13:00 +4°C° 0.1 mm 6 mps 737 mmHg 90%
    14:00 +4°C° 0.1 mm 7 mps 737 mmHg 89%
    15:00 +4°C° 0.2 mm 6 mps 737 mmHg 90%
    16:00 +4°C° 0.2 mm 6 mps 736 mmHg 90%
    17:00 +4°C° 0.2 mm 6 mps 736 mmHg 91%
    18:00 +4°C° 0.2 mm 6 mps 736 mmHg 92%
    19:00 +5°C° 0.2 mm 5 mps 736 mmHg 92%
    20:00 +5°C° 0.2 mm 5 mps 736 mmHg 93%
    21:00 +5°C° 0.2 mm 5 mps 737 mmHg 93%
    22:00 +5°C° 0.2 mm 4 mps 737 mmHg 93%
    23:00 +5°C° 0.2 mm 4 mps 737 mmHg 94%

    26 January, Saturday

    Time Temperature Precipitation Wind Pressure Humidity
    00:00 +4°C° 0 mm 4 mps 737 mmHg 94%
    01:00 +4°C° 0 mm 3 mps 737 mmHg 95%
    02:00 +4°C° 0 mm 3 mps 737 mmHg 95%
    03:00 +3°C° 0 mm 3 mps 737 mmHg 95%
    04:00 +3°C° 0 mm 3 mps 736 mmHg 94%
    05:00 +3°C° 0 mm 3 mps 736 mmHg 94%
    06:00 +3°C° 0.1 mm 2 mps 737 mmHg 93%
    07:00 +3°C° 0.1 mm 2 mps 737 mmHg 93%
    08:00 +3°C° 0.1 mm 2 mps 737 mmHg 92%
    09:00 +3°C° 0.1 mm 2 mps 738 mmHg 90%
    10:00 +3°C° 0.1 mm 2 mps 738 mmHg 88%
    11:00 +3°C° 0.1 mm 2 mps 738 mmHg 86%
    12:00 +3°C° 0 mm 2 mps 738 mmHg 85%
    13:00 +2°C° 0 mm 3 mps 738 mmHg 84%
    14:00 +2°C° 0 mm 3 mps 738 mmHg 83%
    15:00 +2°C° 0 mm 3 mps 738 mmHg 85%
    16:00 +1°C° 0 mm 3 mps 738 mmHg 86%
    17:00 +1°C° 0 mm 3 mps 738 mmHg 87%
    18:00 +1°C° 0 mm 3 mps 739 mmHg 87%
    19:00 +1°C° 0 mm 3 mps 739 mmHg 88%
    20:00 0°C° 0 mm 3 mps 739 mmHg 88%
    21:00 +1°C° 0 mm 2 mps 739 mmHg 89%
    22:00 +1°C° 0 mm 2 mps 739 mmHg 89%
    23:00 +1°C° 0 mm 2 mps 739 mmHg 90%
    Show more